Location: L�Ave Maria
(50.7161°N, 1.5911°E)
Time: 23:33:12
(UTC+00:00)

Cosmos 2056 Rocket - Pass Details

Date: 10 July 2020
Orbit: 741 x 801 km, 74.0° (Epoch: 14 August)

Event Time Altitude Azimuth Distance (km) Brightness Sun altitude
Rises 21:38:41 0° 336° (NNW) 3,309 8.8 -10.9°
Reaches altitude 10° 21:41:06 10° 338° (NNW) 2,381 7.5 -11.1°
Maximum altitude 21:46:32 78° 65° (ENE) 826 3.6 -11.5°
Enters shadow 21:50:53 16° 150° (SSE) 1,965 4.9 -11.9°
